Ephrata, WA

4:19 PM PDT on August 31, 2016 (GMT -0700)
Ephrata Municipal

Weather History for KEPH - November, 2012

Change the Weather History Date:

Wednesday, November 7, 2012

  Actual Average Record
Temperature  
Mean Temperature 44 °F 41 °F  
Max Temperature 55 °F 50 °F 64 °F (2006)
Min Temperature 33 °F 32 °F 18 °F (2011)
Degree Days  
Heating Degree Days 21 24  
Month to date heating degree days 110 162  
Since 1 July heating degree days 605 743  
Cooling Degree Days 0 0  
Month to date cooling degree days 0 0  
Year to date cooling degree days 837 772  
Moisture  
Dew Point 28 °F    
Average Humidity 61    
Maximum Humidity 92    
Minimum Humidity 30    
Precipitation  
Precipitation 0.00 in 0.03 in 0.58 in (1995)
Month to date precipitation 0.05 0.21  
Year to date precipitation 5.91 5.76  
Sea Level Pressure  
Sea Level Pressure 29.99 in    
Wind  
Wind Speed 9 mph (WNW)    
Max Wind Speed 23 mph    
Max Gust Speed 26 mph    
Visibility 9 miles    
Events      
T = Trace of Precipitation, MM = Missing Value Source: NWS Daily Summary

Daily Weather History Graph

Daily Weather History Graph

Search for Another Location

Airport or City:

Trip Planner

Search our weather history database for the weather conditions in past years. The results will help you decide how hot, cold, wet, or windy it might be!

Date:

Astronomy

Nov. 07, 2012 Rise Set
Actual Time 6:51 AM PST 4:31 PM PST
Civil Twilight 6:18 AM PST 5:04 PM PST
Nautical Twilight 5:42 AM PST 5:40 PM PST
Astronomical Twilight 5:06 AM PST 6:16 PM PST
Moon No Moon Rise 1:08 PM PST (11/7)
Length of Visible Light 10h 45m
Length of Day
9h 40m
Last Quarter, 42% of the Moon is Illuminated
Nov 7
Last Quarter
Nov 13
New
Nov 20
First Quarter
Nov 28
Full
Dec 6
Last Quarter

Hourly Weather History & Observations

Time (PST) Temp. Windchill Dew Point Humidity Pressure Visibility Wind Dir Wind Speed Gust Speed Precip Events Conditions
12:53 AM 48.0 °F - 37.9 °F 68% 29.89 in 10.0 mi Calm Calm - N/A   Scattered Clouds
1:53 AM 48.9 °F - 32.0 °F 52% 29.91 in 10.0 mi ESE 3.5 mph - N/A   Clear
2:53 AM 44.1 °F - 30.9 °F 60% 29.93 in 10.0 mi Calm Calm - N/A   Clear
3:53 AM 46.0 °F 41.4 °F 28.9 °F 51% 29.95 in 10.0 mi WSW 9.2 mph - N/A   Clear
4:53 AM 44.1 °F 39.5 °F 30.0 °F 58% 29.96 in 10.0 mi West 8.1 mph - N/A   Clear
5:53 AM 46.0 °F 41.4 °F 28.0 °F 50% 29.97 in 10.0 mi WSW 9.2 mph - N/A   Clear
6:53 AM 44.1 °F 39.5 °F 28.0 °F 53% 29.99 in 10.0 mi WSW 8.1 mph - N/A   Clear
7:53 AM 46.9 °F - 27.0 °F 46% 30.01 in 10.0 mi SW 6.9 mph - N/A   Clear
8:53 AM 50.0 °F - 25.0 °F 38% 30.01 in 10.0 mi WNW 18.4 mph - N/A   Clear
9:53 AM 52.0 °F - 25.0 °F 35% 30.01 in 4.0 mi West 20.7 mph - N/A   Haze
10:53 AM 54.0 °F - 26.1 °F 34% 30.02 in 4.0 mi WNW 17.3 mph 25.3 mph N/A   Haze
11:53 AM 55.0 °F - 26.1 °F 33% 30.02 in 7.0 mi West 16.1 mph - N/A   Clear
12:53 PM 55.0 °F - 25.0 °F 31% 30.02 in 7.0 mi West 13.8 mph 19.6 mph N/A   Clear
1:53 PM 54.0 °F - 24.1 °F 31% 30.02 in 7.0 mi West 9.2 mph - N/A   Clear
2:53 PM 54.0 °F - 26.1 °F 34% 30.02 in 6.0 mi WNW 10.4 mph - N/A   Haze
3:53 PM 52.0 °F - 25.0 °F 35% 30.02 in 6.0 mi WNW 5.8 mph - N/A   Haze
4:53 PM 48.0 °F - 27.0 °F 44% 30.02 in 8.0 mi NW 3.5 mph - N/A   Clear
5:53 PM 43.0 °F 38.8 °F 28.0 °F 56% 30.02 in 10.0 mi NW 6.9 mph - N/A   Clear
6:53 PM 41.0 °F 36.4 °F 28.0 °F 60% 30.01 in 9.0 mi NW 6.9 mph - N/A   Clear
7:53 PM 39.0 °F 34.8 °F 27.0 °F 62% 30.00 in 10.0 mi NNE 5.8 mph - N/A   Clear
8:53 PM 39.0 °F 33.4 °F 27.0 °F 62% 29.99 in 8.0 mi NW 8.1 mph - N/A   Clear
9:53 PM 36.0 °F 32.1 °F 27.0 °F 70% 29.99 in 10.0 mi NNW 4.6 mph - N/A   Clear
10:53 PM 35.1 °F 29.3 °F 26.1 °F 70% 29.96 in 10.0 mi NNW 6.9 mph - N/A   Clear
11:53 PM 33.1 °F 27.7 °F 27.0 °F 78% 29.96 in 10.0 mi North 5.8 mph - N/A   Partly Cloudy